This is the latest recevied weather packets stored in our database for station/object W6UA-13. If no packets are shown the sender has not sent any weather packets the latest 10 day(s).
| Time | Temp. | Humidity | Pressure | Rain* | Wind** | Luminosity | Snow |
|---|---|---|---|---|---|---|---|
| 1777254597 | 15° C | 67% | 1015.3 hPa | 0 mm | - | 104 W/m² | - |
| 1777253697 | 15° C | 67% | 1015.4 hPa | 0 mm | - | 148 W/m² | - |
| 1777252797 | 15.56° C | 66% | 1015.4 hPa | 0 mm | - | 163 W/m² | - |
| 1777251897 | 16.11° C | 66% | 1015.4 hPa | 0 mm | - | 243 W/m² | - |
| 1777250997 | 15.56° C | 65% | 1015.4 hPa | 0 mm | - | 195 W/m² | - |
| 1777250097 | 16.11° C | 62% | 1015.3 hPa | 0 mm | - | 251 W/m² | - |
| 1777249197 | 16.11° C | 61% | 1015.3 hPa | 0 mm | - | 302 W/m² | - |
| 1777248297 | 16.67° C | 61% | 1015 hPa | 0 mm | - | 332 W/m² | - |
| 1777247397 | 16.67° C | 61% | 1014.8 hPa | 0 mm | - | 373 W/m² | - |
| 1777246497 | 16.67° C | 60% | 1014.8 hPa | 0 mm | - | 401 W/m² | - |
| 1777245597 | 17.22° C | 58% | 1014.9 hPa | 0 mm | - | 362 W/m² | - |
| 1777244697 | 17.22° C | 55% | 1014.9 hPa | 0 mm | - | 359 W/m² | - |
| 1777243797 | 17.22° C | 58% | 1014.9 hPa | 0 mm | - | 951 W/m² | - |
| 1777242898 | 16.67° C | 61% | 1014.9 hPa | 0 mm | - | 501 W/m² | - |
| 1777241998 | 16.11° C | 64% | 1015.1 hPa | 0 mm | - | 459 W/m² | - |
| 1777241098 | 16.11° C | 66% | 1015.2 hPa | 0 mm | - | 378 W/m² | - |
| 1777240197 | 15.56° C | 67% | 1015.3 hPa | 0 mm | - | 327 W/m² | - |
| 1777239298 | 15.56° C | 67% | 1015.2 hPa | 0 mm | - | 343 W/m² | - |
| 1777238398 | 15.56° C | 67% | 1015.1 hPa | 0 mm | - | 336 W/m² | - |
| 1777237498 | 15° C | 67% | 1015.1 hPa | 0 mm | - | 271 W/m² | - |
| 1777236598 | 15° C | 68% | 1015.1 hPa | 0 mm | - | 239 W/m² | - |
| 1777235698 | 15° C | 70% | 1015 hPa | 0 mm | - | 248 W/m² | - |
| 1777234798 | 15° C | 70% | 1014.9 hPa | 0 mm | - | 234 W/m² | - |
| 1777233898 | 15° C | 71% | 1014.9 hPa | 0 mm | - | 200 W/m² | - |
| 1777232998 | 14.44° C | 69% | 1014.9 hPa | 0 mm | - | 257 W/m² | - |
* Rain latest hour (hover to see other rain measurements)
** Current wind speed in m/s (hover to see current wind gust speed)